Location: Carrizalito
(10.3833°N, 67.0217°W)
Time: 16:32:33
(UTC+00:00)

Meteor 1-11 Rocket - Pass Details

Date: 08 July 2022
Orbit: 830 x 916 km, 81.2° (Epoch: 18 August)

Event Time Altitude Azimuth Distance (km) Brightness Sun altitude
Exits shadow 08:48:56 30° 268° (W) 1,590 4.6 -19.3°
Maximum altitude 08:49:25 30° 277° (W) 1,577 4.7 -19.2°
Drops below altitude 10° 08:54:31 10° 337° (NNW) 2,587 6.3 -18.1°
Sets 08:57:17 0° 347° (NNW) 3,519 7.1 -17.5°
